Flag for Canada Weather past 2 weeks in Moose Jaw, Saskatchewan, Canada

Now
10 °F

Light snow. Overcast.


Feels Like: -7 °F
Forecast: -4 / 15 °F
Wind: 16 mph from Northeast

Location: Regina Weather Station

Current Time: Jan 31, 2015 at 2:58:14 AM

Latest Report: Jan 31, 2015 at 2:00 AM


Visibility: 3 mi

Pressure: 30.44 "Hg

Humidity: 79%

Dew point: 5 °F

Location of Moose JawLocation

Historic Weather in Moose Jaw — Graph

°F

Moose Jaw temperature yesterday

Maximum temperature yesterday: 21 °F (at 12:00 PM)
Minimum temperature yesterday: 10 °F (at 5:00 AM)
Average temperature yesterday: 17 °F

Past Weeks' High & Low Weather Summary

 TemperatureHumidityPressure
High39 °F (Jan 22, 8:00 PM)100% (Jan 16, 11:00 PM)30.61 "Hg (Jan 16, 11:00 PM)
Low7 °F (Jan 18, 7:00 AM)65% (Jan 17, 1:00 PM)29.43 "Hg (Jan 16, 6:00 PM)
Average26 °F90%30.00 "Hg
* Reported Jan 16 1:00 AM — Jan 31 1:00 AM, Moose Jaw, Weather by CustomWeather, © 2014

Note: Actual official high and low records may vary slightly from our data, if they occured in-between our weather recording intervals... More about our weather records

Advertising

Moose Jaw weather history for previous 24 hours

 ConditionsComfort  
Time TempWeatherWind HumidityBarometerVisibility
1:00 AM
Jan 31
10 °FLight snow. Ice fog.16 mph85%30.43 "Hg3 mi
12:00 AM12 °FLight snow. Ice fog.13 mph85%30.43 "Hg3 mi
11:00 PM
Jan 30
14 °FLight snow. Overcast.12 mph85%30.40 "Hg8 mi
10:00 PM16 °FLight snow. Overcast.13 mph86%30.38 "Hg8 mi
9:00 PM18 °FLight snow. Passing clouds.10 mph86%30.37 "Hg8 mi
8:00 PM18 °FOvercast.12 mph86%30.38 "Hg15 mi
7:00 PM19 °FOvercast.10 mph86%30.37 "Hg15 mi
6:00 PM19 °FLow clouds.10 mph93%30.37 "Hg10 mi
5:00 PM21 °FLow clouds.13 mph86%30.36 "Hg15 mi
4:00 PM21 °FOvercast.10 mph86%30.36 "Hg15 mi
3:00 PM21 °FPartly sunny.17 mph86%30.34 "Hg15 mi
2:00 PM21 °FScattered clouds.14 mph86%30.34 "Hg15 mi
1:00 PM21 °FPartly sunny.20 mph86%30.34 "Hg15 mi
12:00 PM21 °FBroken clouds.13 mph86%30.33 "Hg15 mi
11:00 AM19 °FOvercast.12 mph93%30.32 "Hg15 mi
10:00 AM18 °FPartly sunny.12 mph100%30.31 "Hg15 mi
9:00 AM19 °FPartly sunny.14 mph93%30.29 "Hg12 mi
8:49 AM19 °FLow clouds.15 mph100%30.29 "Hg8 mi
8:00 AM16 °FIce fog.8 mph100%30.28 "Hg0 mi
7:00 AM12 °FLow clouds.No wind92%30.27 "Hg10 mi
6:47 AM10 °FLow clouds.No wind92%30.28 "Hg15 mi
6:00 AM10 °FPassing clouds.7 mph92%30.27 "Hg15 mi
5:00 AM10 °FPassing clouds.7 mph92%30.27 "Hg15 mi
4:00 AM12 °FPassing clouds.8 mph92%30.28 "Hg15 mi
3:00 AM14 °FClear.10 mph92%30.29 "Hg15 mi
2:00 AM14 °FClear.12 mph92%30.30 "Hg15 mi
Weather by CustomWeather, © 2014

See weather overviewHow to use our weather pages